Miscellaneous Local Product
Issued by NWS Hastings, NE

Home | Current Version | Previous Version | Graphics & Text | Print | Product List | Glossary On
Versions: 1 2 3 4 5 6 7 8 9 10 11 12 13 14 15 16 17 18 19 20 21 22 23 24 25 26 27 28 29 30 31 32 33 34 35 36 37 38 39 40 41 42 43 44 45 46 47 48 49 50
000
AXUS43 KGID 220802
MISGRI

GID CWA HOURLY WEATHER ROUNDUP
NATIONAL WEATHER SERVICE HASTINGS NE
300 AM CDT FRI JUL 22 2016

NOTE: "FAIR" INDICATES FEW OR NO CLOUDS BELOW 12,000 FEET WITH NO
SIGNIFICANT WEATHER AND/OR OBSTRUCTIONS TO VISIBILITY.

...SOUTH CENTRAL NEBRASKA...

CITY           SKY/WX    TMP DP  RH WIND       PRES   REMARKS
GRAND ISLAND   CLEAR     78  69  73 SW7       29.93F
HASTINGS       CLEAR     79  67  66 S8        29.95F
KEARNEY        CLEAR     75  70  83 CALM      29.97S
ORD            CLEAR     73  71  93 NW3       29.94S
YORK           CLEAR     81  70  69 S12       29.93F
AURORA         CLEAR     78  69  73 S7        29.93S
LEXINGTON      CLEAR     74  72  93 NW3       29.98S
HOLDREGE       CLEAR     74  71  91 CALM      29.97S
HEBRON         CLEAR     81  69  65 S9        29.94F

...NEBRASKA PANHANDLE...

CITY           SKY/WX    TMP DP  RH WIND       PRES   REMARKS
CHADRON        CLEAR     65  57  75 N6        30.07S
ALLIANCE       CLOUDY    61  58  90 CALM      30.12S
SCOTTSBLUFF    CLOUDY    70  64  81 E5        30.12F
SIDNEY         CLOUDY    73  66  78 E6        30.16F

...WESTERN AND NORTH CENTRAL NEBRASKA...

CITY           SKY/WX    TMP DP  RH WIND       PRES   REMARKS
VALENTINE      PTCLDY    72  68  87 NW5       30.02S
AINSWORTH      CLEAR     75  73  93 N6        30.01F
ONEILL         CLEAR     77  75  92 CALM      29.95F
BROKEN BOW     CLEAR     72  70  93 CALM      29.98F
IMPERIAL       CLEAR     75  66  73 NW5       30.06S
NORTH PLATTE   CLEAR     70  68  93 CALM      30.02S
MCCOOK         CLEAR     75  70  84 N7        29.99F

...EASTERN NEBRASKA...

CITY           SKY/WX    TMP DP  RH WIND       PRES   REMARKS
NORFOLK        CLOUDY    76  74  93 SE3       29.91F
SO SIOUX CITY  CLEAR     79  76  90 SE3       29.91F
TEKAMAH        CLOUDY    80  77  90 CALM      29.91S
COLUMBUS       CLEAR     81  66  61 SW6       29.92S
ALBION         CLEAR     75  71  86 CALM      29.93F
OMAHA EPPLEY   CLOUDY    85  76  74 S10       29.91F HX  94
OFFUTT AFB     CLOUDY    81  77  88 SE6       29.92F
MILLARD        CLOUDY    83  75  77 SE6       29.91F HX  90
LINCOLN        CLEAR     81  72  74 S10       29.92F
NEBRASKA CITY  CLOUDY    80  73  79 SW9       29.94S
BEATRICE       CLEAR     81  72  74 S7        29.95S
FALLS CITY     CLEAR     82  73  74 S13       29.94F

...NORTHERN KANSAS...

CITY           SKY/WX    TMP DP  RH WIND       PRES   REMARKS
GOODLAND       CLOUDY    78  58  49 NW8       30.06F
HILL CITY      CLEAR     81  64  56 SW7       29.98F
NORTON         SUNNY     75  59  57 SW5       29.97F
SMITH CENTER   CLEAR     73  64  73 SE6       29.97S
BELOIT         CLEAR     81  66  61 SE6       29.95S
HAYS           CLEAR     75  61  60 SW5       30.00S
RUSSELL        CLEAR     79  66  64 S12       29.98S
CONCORDIA      CLEAR     82  66  58 S12       29.96S
SALINA         CLEAR     81  68  64 S8        29.98S
TOPEKA         CLEAR     84  71  65 S8        29.98S



USA.gov is the U.S. government's official web portal to all federal, state and local government web resources and services.